Wind_Speed
11 12 12 13 13 13 13 13 13 12 11 11 11 10 10 9 8 7 6 6 5 4 4 3 3 2 2 2 3 3 3 3 3 4 4 3 3 3 3 3 3 3 3
13 14 14 14 15 14 14 14 14 13 12 12 12 12 11 10 9 8 7 6 6 5 4 4 3 3 3 3 3 3 3 3 3 4 4 3 3 3 3 3 4 4 4
14 16 16 16 16 16 16 16 15 14 13 13 13 13 12 11 10 9 8 7 7 6 5 4 3 3 3 3 3 3 3 3 3 3 3 3 3 4 4 4 4 4 4
16 17 18 18 17 17 17 17 17 16 15 15 14 14 13 12 11 10 9 8 7 7 6 5 4 3 3 3 3 3 3 3 3 3 3 4 4 4 4 5 4 4 4
18 18 19 20 19 19 19 19 18 18 17 16 16 16 15 14 12 11 10 9 8 7 7 5 5 4 4 4 3 3 3 3 3 3 3 4 4 4 5 5 5 5 4
18 19 19 20 21 21 20 20 20 19 18 18 18 17 16 15 14 12 11 10 9 8 7 6 6 5 5 4 4 4 3 3 3 3 3 4 4 4 5 5 5 5 5
19 19 19 20 22 22 21 20 20 20 20 19 19 18 17 16 15 14 12 11 10 9 9 8 7 6 6 5 5 5 4 3 3 3 3 3 4 4 5 5 5 5 5
19 18 19 20 22 22 23 22 21 21 21 20 20 19 18 17 16 15 14 12 12 11 10 9 8 8 7 7 6 6 5 4 3 3 3 4 4 5 5 5 6 6 6
19 19 20 19 20 22 23 23 22 22 22 21 21 20 19 18 17 16 15 14 13 12 11 10 9 9 8 8 8 7 6 5 4 4 4 5 6 6 6 6 6 7 7
20 19 21 20 20 22 22 22 22 22 22 22 22 21 20 19 19 18 16 15 14 14 13 12 11 10 10 9 9 8 7 7 6 6 6 6 7 7 8 8 8 8 9
21 20 22 22 21 23 24 23 23 22 22 22 22 21 21 20 20 19 18 17 16 15 14 13 13 12 11 10 10 9 9 8 8 7 8 8 8 9 9 9 10 10 11
22 21 21 22 23 23 23 24 24 24 23 22 23 22 21 21 21 20 20 19 17 17 16 15 14 13 13 12 12 11 11 10 10 10 10 10 10 11 11 12 12 12 12
23 23 22 22 23 24 23 24 25 25 24 23 23 23 23 22 22 22 21 20 19 18 17 16 16 15 15 14 14 13 13 13 13 12 12 12 13 13 13 13 13 14 14
26 25 24 23 24 24 23 24 26 27 25 25 24 24 24 23 22 22 23 22 20 19 19 18 18 17 17 16 16 16 15 15 15 14 15 15 15 15 15 15 15 15 16
28 26 24 23 23 23 23 24 25 27 27 27 26 25 25 24 24 23 23 22 20 19 19 19 19 19 19 18 17 17 18 18 18 16 16 17 17 17 17 17 17 18 19
29 24 24 23 22 22 23 24 25 26 27 26 26 26 26 26 25 23 24 23 21 20 20 20 20 20 20 19 19 19 19 20 20 20 19 19 19 19 19 19 20 21 21
32 27 26 26 23 23 23 24 24 25 26 26 26 26 27 26 25 25 25 24 22 22 22 22 22 21 22 21 21 21 21 22 23 23 22 21 22 21 20 21 21 21 22
33 30 29 28 25 24 25 24 24 24 24 25 26 27 27 25 25 26 26 25 24 24 23 23 23 22 23 23 23 23 23 23 24 25 25 25 23 22 23 23 24 25 25
33 30 28 29 27 27 27 25 26 26 25 25 25 26 26 26 25 25 26 27 27 25 24 24 24 24 24 24 24 24 24 24 25 26 26 26 26 25 25 26 27 27 28
35 33 31 31 30 29 28 27 27 27 26 25 25 26 26 26 25 25 26 26 26 25 25 26 26 25 26 26 26 26 25 26 27 28 28 28 28 28 28 29 29 29 30
36 36 35 34 32 31 29 28 28 28 27 27 27 27 25 25 25 25 25 25 26 27 27 28 27 27 28 27 27 27 27 28 29 29 29 29 30 30 30 31 31 32 32
36 37 36 36 34 33 31 30 29 30 27 26 27 26 25 24 24 25 26 27 27 29 29 29 28 28 28 28 28 27 28 28 29 30 30 31 31 31 32 32 33 33 34
37 36 36 37 37 35 33 32 30 28 28 27 25 23 23 24 25 25 26 26 28 29 30 31 30 30 30 29 29 30 30 31 31 31 30 31 33 33 34 35 35 36 37
35 37 38 38 38 37 36 33 28 26 26 26 23 22 23 24 26 26 27 27 28 29 29 30 31 32 31 30 31 31 32 32 31 31 32 34 35 36 36 36 37 37 38
36 37 38 39 38 37 36 35 31 28 26 26 24 23 24 23 24 25 26 27 28 29 29 29 30 31 31 31 32 33 33 33 33 34 34 34 35 36 38 38 38 39 39
34 36 38 39 38 37 36 35 32 30 27 25 22 22 22 23 24 25 26 27 28 29 30 30 30 30 30 31 32 33 33 34 36 35 36 36 36 37 38 39 40 41 41
Wind_Direction
247 244 237 233 226 221 219 217 215 216 220 226 229 230 230 231 234 236 240 243 248 253 260 265 280 298 311 323 331 336 340 344 347 342 340 342 343 341 331 319 314 316 315
247 246 243 239 232 228 225 223 220 221 225 231 236 238 238 238 240 243 245 248 254 259 261 265 277 286 297 305 310 318 329 335 340 339 338 341 345 341 332 319 312 309 306
251 251 247 244 238 233 231 229 228 228 231 235 240 243 245 246 247 249 250 253 257 260 260 262 267 274 282 287 295 304 318 328 333 334 336 336 340 336 329 323 315 310 305
257 255 251 245 242 238 235 235 233 234 235 238 242 246 248 250 253 256 257 258 260 261 263 263 261 265 271 274 281 291 306 320 326 332 334 329 333 333 329 324 322 316 306
261 259 254 246 243 242 239 238 238 237 239 241 244 248 251 254 257 260 261 261 261 263 264 261 259 262 263 265 271 281 294 312 323 335 335 325 327 328 330 325 323 322 310
262 260 258 251 247 245 243 241 240 241 242 243 245 249 252 256 259 261 261 262 263 264 262 259 257 256 257 258 265 273 282 300 316 334 329 325 328 330 332 326 326 324 317
261 261 260 254 248 246 243 241 242 243 246 246 248 250 253 256 258 260 260 262 263 262 262 258 253 251 252 252 257 261 269 281 295 317 324 322 323 327 331 329 330 331 320
257 259 258 253 248 247 244 239 242 245 246 247 250 251 254 256 258 259 259 261 262 261 261 258 252 249 248 249 253 256 261 270 281 302 315 315 320 324 325 324 324 327 325
255 256 255 254 254 247 244 240 240 245 248 249 250 253 254 256 258 258 258 258 259 259 259 256 250 248 248 250 253 255 261 266 277 294 305 307 314 316 317 317 320 322 320
255 255 252 253 256 249 244 242 241 245 249 252 252 254 255 256 257 257 257 257 257 257 256 253 250 249 249 251 251 254 258 265 273 287 292 294 304 309 311 310 310 314 313
258 255 254 250 254 252 244 241 244 247 249 251 252 254 255 256 256 256 257 255 255 254 254 253 252 251 252 251 252 253 257 265 273 280 284 289 298 304 306 305 305 305 303
259 254 255 252 253 251 246 245 245 247 248 251 252 252 254 256 255 255 255 253 253 253 253 253 253 253 253 253 254 255 259 264 268 274 280 288 294 298 300 300 299 300 299
260 256 253 252 252 251 248 249 248 247 247 250 251 252 253 254 254 254 253 250 250 251 252 252 252 253 254 254 256 258 262 265 269 274 280 285 290 294 296 299 297 297 297
256 255 253 253 252 249 248 252 251 247 246 248 249 250 252 253 252 252 250 248 249 251 252 252 252 253 254 255 257 259 263 268 272 274 278 283 286 289 292 294 295 295 295
251 248 250 251 252 250 248 250 249 245 245 247 247 249 249 250 249 252 251 249 249 250 251 252 253 254 255 258 260 262 266 270 275 274 279 283 287 288 290 291 291 294 294
249 243 252 253 251 252 249 247 249 249 245 245 247 246 246 251 251 248 250 251 248 248 250 252 253 255 257 259 262 264 265 269 274 276 279 281 284 286 287 288 290 291 292
250 246 251 253 250 251 252 251 251 249 246 246 245 247 248 250 250 249 249 249 249 249 251 252 254 256 258 259 262 264 266 270 273 276 277 279 282 284 285 285 289 291 291
249 245 247 251 250 249 251 251 251 252 250 248 246 248 246 247 248 251 248 248 250 250 251 254 254 256 258 259 262 264 267 270 273 275 276 278 280 281 283 285 287 288 289
250 245 243 249 249 248 249 250 251 252 253 251 248 248 246 248 250 251 249 250 250 249 251 254 254 257 258 258 261 264 267 270 272 275 277 277 278 280 283 284 286 288 289
250 245 244 247 246 247 249 251 251 252 255 254 251 249 250 249 249 252 253 251 249 251 253 255 256 258 259 259 262 265 268 271 273 274 276 277 278 281 283 285 286 288 289
247 244 243 244 245 247 247 247 249 252 253 253 255 252 253 252 252 256 255 253 254 255 257 258 258 259 261 262 264 266 269 271 273 273 275 276 279 280 283 285 287 288 290
243 240 240 242 244 245 245 246 248 252 253 254 254 250 252 254 258 257 257 258 259 257 258 260 259 261 262 263 264 267 271 273 273 274 275 277 279 281 283 285 287 289 291
244 242 240 241 243 245 246 245 246 251 252 253 253 259 259 258 261 260 259 260 260 259 259 258 259 261 264 264 265 269 272 274 275 274 277 278 281 283 284 285 286 288 290
245 243 241 241 243 246 248 249 248 252 253 254 256 260 263 263 262 262 263 264 261 262 261 260 258 260 263 264 266 268 270 273 274 275 276 279 281 283 285 285 287 289 291
242 241 240 242 242 245 247 248 250 252 254 255 255 262 264 266 263 263 265 267 264 262 261 260 258 260 262 265 267 269 271 272 274 276 276 278 280 282 285 286 288 290 292
243 242 241 243 243 244 246 248 251 253 256 257 258 262 264 265 264 264 267 268 267 263 260 259 259 261 262 264 266 268 269 272 275 276 277 279 281 284 286 288 290 291 293
Height
5885 5885 5887 5888 5889 5890 5891 5891 5892 5893 5894 5894 5895 5895 5895 5895 5896 5896 5896 5896 5895 5895 5895 5895 5895 5895 5894 5894 5894 5894 5894 5894 5894 5894 5894 5894 5894 5894 5894 5895 5895 5895 5895
5883 5884 5885 5887 5888 5889 5890 5890 5891 5892 5893 5893 5894 5895 5895 5895 5895 5895 5895 5895 5895 5895 5894 5894 5894 5894 5894 5894 5894 5894 5894 5894 5894 5894 5894 5894 5894 5894 5894 5894 5894 5895 5895
5882 5882 5883 5885 5886 5887 5888 5889 5890 5891 5892 5892 5893 5894 5894 5894 5894 5894 5894 5894 5894 5894 5894 5894 5894 5894 5894 5894 5894 5894 5893 5894 5894 5894 5894 5894 5894 5894 5894 5894 5894 5894 5894
5880 5880 5881 5882 5884 5885 5887 5888 5889 5889 5890 5891 5892 5892 5893 5893 5893 5893 5893 5893 5893 5893 5893 5893 5893 5893 5893 5893 5893 5893 5893 5894 5894 5894 5894 5894 5894 5894 5893 5893 5893 5893 5893
5877 5878 5878 5880 5881 5883 5884 5886 5887 5888 5888 5889 5890 5891 5891 5892 5892 5892 5892 5892 5892 5892 5892 5892 5893 5893 5893 5893 5893 5893 5893 5893 5894 5894 5894 5894 5893 5893 5893 5893 5893 5892 5892
5875 5875 5876 5877 5878 5880 5881 5883 5884 5885 5886 5887 5888 5889 5889 5890 5891 5891 5891 5891 5891 5891 5891 5891 5892 5892 5892 5892 5892 5892 5893 5893 5893 5893 5893 5893 5893 5893 5892 5892 5892 5892 5892
5872 5872 5873 5874 5875 5877 5878 5880 5881 5883 5884 5885 5885 5886 5887 5888 5889 5889 5889 5889 5890 5890 5890 5890 5891 5891 5892 5892 5892 5892 5892 5893 5893 5893 5893 5893 5892 5892 5892 5892 5892 5891 5891
5869 5870 5870 5871 5872 5874 5875 5877 5878 5880 5881 5882 5883 5884 5885 5886 5886 5887 5887 5887 5888 5888 5889 5889 5890 5890 5890 5891 5891 5891 5891 5892 5892 5892 5892 5892 5892 5891 5891 5891 5891 5891 5890
5865 5866 5867 5868 5869 5870 5872 5873 5875 5877 5878 5879 5880 5881 5882 5883 5884 5885 5885 5885 5886 5886 5887 5887 5888 5889 5889 5890 5890 5890 5891 5891 5891 5891 5891 5891 5891 5891 5890 5890 5890 5890 5890
5861 5862 5864 5865 5866 5867 5868 5870 5871 5873 5874 5876 5877 5878 5879 5880 5881 5882 5882 5883 5883 5884 5885 5886 5886 5887 5888 5888 5889 5889 5889 5890 5890 5890 5890 5890 5890 5890 5889 5889 5889 5889 5889
5858 5859 5860 5861 5862 5863 5864 5866 5868 5869 5871 5872 5874 5875 5876 5877 5878 5879 5880 5880 5881 5882 5883 5883 5884 5885 5886 5887 5887 5888 5888 5889 5889 5889 5888 5888 5889 5889 5888 5888 5888 5888 5887
5854 5855 5856 5857 5858 5859 5860 5862 5864 5865 5867 5868 5870 5872 5873 5874 5875 5876 5876 5877 5878 5879 5880 5881 5882 5883 5884 5885 5885 5886 5886 5887 5886 5887 5886 5887 5887 5887 5887 5886 5886 5886 5885
5849 5850 5852 5853 5853 5855 5857 5858 5859 5861 5862 5864 5866 5868 5869 5870 5872 5872 5873 5874 5875 5876 5877 5878 5879 5881 5882 5882 5883 5884 5884 5885 5885 5885 5885 5885 5885 5885 5884 5884 5884 5883 5883
5843 5844 5846 5848 5849 5851 5853 5854 5854 5856 5858 5860 5862 5864 5865 5866 5868 5868 5869 5870 5872 5873 5874 5875 5876 5877 5879 5880 5881 5881 5882 5882 5883 5883 5883 5882 5882 5882 5882 5881 5881 5881 5880
5836 5836 5839 5842 5844 5845 5848 5849 5849 5851 5854 5855 5857 5859 5860 5862 5864 5865 5865 5865 5868 5869 5870 5872 5873 5874 5876 5877 5877 5878 5879 5879 5879 5879 5880 5879 5879 5879 5879 5878 5878 5877 5877
5827 5828 5833 5835 5838 5840 5842 5843 5844 5846 5848 5850 5851 5852 5855 5857 5859 5861 5861 5862 5865 5866 5867 5868 5870 5871 5872 5873 5874 5874 5875 5875 5875 5875 5876 5876 5876 5875 5875 5874 5874 5873 5873
5822 5825 5828 5830 5833 5835 5837 5839 5840 5841 5842 5844 5846 5848 5850 5853 5854 5854 5856 5858 5860 5862 5864 5865 5866 5867 5868 5869 5870 5871 5871 5871 5871 5871 5871 5872 5872 5871 5871 5870 5870 5869 5868
5816 5821 5824 5826 5828 5831 5833 5835 5836 5837 5837 5839 5841 5844 5844 5847 5849 5850 5853 5854 5856 5858 5860 5861 5862 5863 5864 5865 5866 5866 5867 5867 5867 5867 5867 5867 5867 5867 5866 5866 5865 5864 5863
5810 5813 5817 5821 5823 5826 5828 5830 5832 5833 5834 5834 5835 5838 5838 5841 5844 5844 5847 5850 5851 5852 5854 5856 5858 5859 5859 5860 5861 5861 5862 5862 5862 5862 5862 5862 5861 5861 5861 5860 5860 5859 5858
5806 5808 5812 5814 5817 5820 5822 5824 5825 5827 5829 5829 5830 5833 5834 5836 5839 5840 5842 5844 5846 5848 5850 5851 5852 5853 5854 5855 5856 5856 5857 5857 5857 5857 5857 5856 5856 5856 5855 5854 5854 5853 5852
5800 5803 5806 5808 5811 5814 5816 5818 5819 5821 5823 5824 5825 5828 5829 5831 5832 5835 5837 5839 5841 5843 5844 5845 5847 5848 5849 5850 5851 5851 5851 5851 5852 5851 5851 5851 5851 5850 5849 5848 5847 5846 5845
5791 5795 5799 5802 5805 5808 5810 5812 5813 5816 5817 5818 5819 5821 5824 5826 5828 5830 5832 5834 5836 5837 5839 5840 5841 5842 5843 5844 5845 5845 5846 5846 5846 5845 5845 5845 5844 5844 5843 5842 5840 5839 5838
5783 5787 5791 5795 5798 5800 5802 5804 5806 5809 5812 5814 5816 5817 5819 5821 5823 5825 5826 5827 5830 5831 5833 5834 5835 5836 5837 5838 5839 5839 5840 5840 5839 5839 5839 5838 5837 5837 5836 5835 5833 5832 5831
5778 5781 5785 5788 5791 5793 5796 5799 5801 5804 5807 5809 5811 5813 5814 5816 5817 5819 5820 5822 5823 5825 5826 5828 5829 5830 5831 5832 5832 5832 5833 5833 5833 5832 5832 5831 5831 5829 5828 5827 5826 5824 5823
5772 5775 5778 5781 5784 5787 5790 5793 5796 5798 5801 5804 5806 5807 5809 5810 5812 5813 5815 5816 5817 5819 5820 5821 5822 5823 5824 5825 5825 5826 5826 5826 5825 5825 5825 5825 5824 5822 5820 5819 5818 5816 5814
5766 5769 5771 5773 5777 5781 5784 5787 5791 5793 5796 5797 5800 5802 5803 5805 5807 5808 5809 5810 5811 5812 5813 5814 5815 5816 5817 5818 5819 5819 5819 5819 5818 5818 5817 5817 5816 5815 5813 5811 5809 5807 5805